Location: East-View Observatory
(46.8144°N, 92.0597°W)
Time: 02:12:28
(UTC-05:00)

Envisat - Visible Passes

Search period start: 16 October 2019 00:00
Search period end: 26 October 2019 00:00
Orbit: 764 x 766 km, 98.1° (Epoch: 15 October)

Date Brightness Start Highest point End Pass type
(mag) Time Alt. Az. Time Alt. Az. Time Alt. Az.
16 Oct 4.9 20:01:10 10° SSW 20:05:39 31° W 20:10:09 10° NNW visible
17 Oct 3.5 19:23:40 10° S 19:28:42 65° WSW 19:33:46 10° NNW visible
18 Oct 3.0 18:46:57 10° SSE 18:51:56 62° ENE 18:56:58 10° N visible
18 Oct 5.7 20:27:52 10° SW 20:31:24 19° W 20:34:57 10° NW visible
19 Oct 6.1 06:53:59 10° NE 06:57:18 17° E 07:00:37 10° SE visible
19 Oct 4.5 19:49:35 10° SSW 19:54:19 38° W 19:59:04 10° NNW visible
20 Oct 3.1 19:12:20 10° S 19:17:25 80° WSW 19:22:32 10° NNW visible
20 Oct 6.3 20:56:06 10° W 20:57:15 11° W 20:58:25 10° WNW visible
21 Oct 3.2 18:35:50 10° SE 18:40:43 50° ENE 18:45:38 10° N visible
21 Oct 5.4 20:16:01 10° SW 20:20:01 23° W 20:24:02 10° NW visible
22 Oct 6.3 06:43:20 10° ENE 06:45:54 14° E 06:48:27 10° ESE visible
22 Oct 4.1 19:38:05 10° S 19:42:59 48° W 19:47:55 10° NNW visible
23 Oct 3.0 19:01:05 10° SSE 19:06:09 83° ENE 19:11:16 10° NNW visible
23 Oct 6.1 20:43:18 10° WSW 20:45:50 14° W 20:48:22 10° WNW visible
24 Oct 5.9 07:07:41 10° NE 07:11:43 23° E 07:15:43 10° SE visible
24 Oct 5.0 20:04:17 10° SSW 20:08:39 29° W 20:13:03 10° NW visible
25 Oct 6.6 06:33:17 10° ENE 06:34:28 11° E 06:35:39 10° E visible
25 Oct 3.6 19:26:40 10° S 19:31:41 60° W 19:36:43 10° NNW visible
